User: anonymous   Login
Location: Unspecified
(0.0000°N, 0.0000°E)
Time: 04:35:31
(UTC+00:00)
Language:

STARLINK-34032 - Orbit

View from above orbital plane
View from above orbital plane
View from above satellite
View from above satellite

Ground track
Ground track

The orbit is defined by the following mean orbital elements,

1 63853U          26144.99298086 +.00000000 +00000-0 +67401-3 0 00007
2 63853  43.0037   6.8003 0001467 274.6367  85.4317 15.27601071    02
Epoch (UTC): 24 May 2026 23:49:53
Eccentricity: 0.0001467
inclination: 43.0037°
perigee height: 482 km
apogee height: 484 km
right ascension of ascending node: 6.8003°
argument of perigee: 274.6367°
revolutions per day: 15.27601071
mean anomaly at epoch: 85.4317°

The dashed part of the orbit path shows where the satellite is in the earth's shadow,  

DLR